Weather Roundup
Issued by NWS

Home | Current Version | Previous Version | Text Only | Print | Product List | Glossary On
Versions: 1 2 3 4 5 6 7 8 9 10 11 12 13 14 15 16 17 18 19 20 21 22 23 24 25 26 27 28 29 30 31 32 33 34 35 36 37 38 39 40 41 42 43 44 45 46 47 48 49 50
377
NZUS93 KARX 252210
HRRWXR

CURRENT HOURLY OBSERVATIONS ACROSS
MUCH OF THE UPPER MISSISSIPPI VALLEY
NATIONAL WEATHER SERVICE LA CROSSE WI
400 PM CST SAT FEB 25 2017


...SOUTHEAST MINNESOTA...


CITY           SKY/WX    TMP DP  RH WIND       PRES   REMARKS
ROCHESTER      SUNNY     21  14  74 W15       29.93S WCI   8
ROCHESTER/MAYO FAIR      26  15  64 SW15      29.93S WCI  13
WINONA           N/A     30  12  47 W6        29.96R WCI  24
AUSTIN         SUNNY     23  14  68 SW12      29.95S WCI  12
ALBERT LEA     SUNNY     25  16  68 SW9       29.95S WCI  15
DODGE CENTER   NOT AVBL
PRESTON        SUNNY     22  12  65 W12       29.95R WCI  10
OWATONNA       CLOUDY    25  16  68 SW10      29.93F WCI  15
FARIBAULT      CLOUDY    27  18  69 S13       29.93S WCI  16
$$

...ELSEWHERE IN MINNESOTA...


CITY           SKY/WX    TMP DP  RH WIND       PRES   REMARKS
MINNEAPOLIS    CLOUDY    32  15  49 W13G20    29.89S WCI  22
INTNL FALLS    LGT SNOW  21  14  74 SW7       29.71F WCI  12
DULUTH         MOSUNNY   25  14  63 W16       29.75F WCI  12
RED WING       PTSUNNY   30  10  43 W10       29.91S WCI  21
REDWOOD FALLS  PTSUNNY   35  17  47 SW16      29.88F WCI  25
MANKATO          N/A     27  20  75 SW15      29.93S WCI  15
WORTHINGTON    CLOUDY    26  18  71 SW15      29.90F WCI  14
FAIRMONT       CLOUDY    26  18  71 SW16      29.95F WCI  14
$$

...SOUTHWEST WISCONSIN...


CITY           SKY/WX    TMP DP  RH WIND       PRES   REMARKS
LA CROSSE      SUNNY     28  11  48 W12       29.96R WCI  18
PRAIRIE DU CHI SUNNY     28  11  49 W8        29.99R WCI  20
BOSCOBEL       SUNNY     28   9  44 NW9       29.97R WCI  19
LONE ROCK      SUNNY     27  11  51 W13       29.95R WCI  16
PLATTEVILLE    SUNNY     26  17  67 W5        29.96R WCI  20
FORT MC COY    SUNNY     27  11  51 W10       29.94R WCI  17
CAMP DOUGLAS   SUNNY     25   8  49 W14G23    29.90R WCI  13
MAUSTON-NEW LI CLEAR     25  10  51 NW14      29.90S WCI  13
VIROQUA        FAIR      24  11  56 W7        29.92R WCI  16
WIS DELLS      SUNNY     24   9  53 W9        29.90R WCI  14
$$

...ELSEWHERE IN WISCONSIN...


CITY           SKY/WX    TMP DP  RH WIND       PRES   REMARKS
MILWAUKEE      PTSUNNY   23  11  60 W14       29.90R WCI  11
MADISON        MOSUNNY   24  11  57 NW12G23   29.91R WCI  13
GREEN BAY      SUNNY     23  12  62 W15G26    29.84R WCI  10
EAU CLAIRE     SUNNY     26   9  48 W13       29.88S WCI  15
BLACK RVR FLS  FAIR      26   8  46 E12G17    29.92R WCI  16
MEDFORD        SUNNY     23   6  47 W14G22    29.80S WCI  11
WAUSAU         SUNNY     22   7  52 W15       29.81R WCI   9
WIS RAPIDS     SUNNY     25   7  46 NW14      29.88R WCI  13
MARSHFIELD     SUNNY     23   6  48 W16G22    29.83R WCI  10
RICE LAKE      MOSUNNY   29  11  46 W12       29.86S WCI  20
$$

...NORTHEAST IOWA...


CITY           SKY/WX    TMP DP  RH WIND       PRES   REMARKS
WATERLOO       SUNNY     26  15  63 W15       30.03R WCI  14
DUBUQUE        SUNNY     26  14  60 NW15      29.97R WCI  14
DECORAH        SUNNY     23  12  63 W8G15     29.96R WCI  14
MASON CITY     MOSUNNY   22  14  71 SW16      30.00R WCI   8
CHARLES CITY   SUNNY     23  14  68 W14       30.00R WCI  11
OELWEIN        SUNNY     25  16  68 W14       30.00S WCI  13
$$

...ELSEWHERE IN IOWA...


CITY           SKY/WX    TMP DP  RH WIND       PRES   REMARKS
DES MOINES     CLOUDY    32  17  54 W9        30.05F WCI  24
IOWA CITY      SUNNY     31  14  49 MISG      30.06R
FORT DODGE     CLOUDY    25  14  63 SW10      30.01F WCI  15
MARSHALLTOWN   CLOUDY    27  16  63 W12       30.03F WCI  17
CEDAR RAPIDS   SUNNY     28  18  66 NW14      30.02S WCI  17
$$

...NORTHERN ILLINOIS...


CITY           SKY/WX    TMP DP  RH WIND       PRES   REMARKS
CHICAGO-OHARE  FLURRIES  27  14  58 W21G26    29.93R WCI  13
CHICAGO-MIDWAY FLURRIES  27  13  55 W17G25    29.95R WCI  14
MOLINE         MOSUNNY   33  16  49 NW17      30.02R WCI  22
ROCKFORD       MOSUNNY   27  14  58 NW17G29   29.97R WCI  14
PEORIA         MOSUNNY   31  15  52 W14       30.03R WCI  21
$$

NOTE: "FAIR" INDICATES FEW OR NO CLOUDS BELOW 12,000 FEET WITH NO
SIGNIFICANT WEATHER AND/OR OBSTRUCTIONS TO VISIBILITY. WIND
SPEEDS ARE IN MILES-PER-HOUR.




USA.gov is the U.S. government's official web portal to all federal, state and local government web resources and services.